Location: Jacksonville
(30.3320°N, 81.6560°W)
Time: 14:02:58
(UTC-04:00)

Envisat - Visible Passes

Search period start: 08 June 2026 00:00
Search period end: 18 June 2026 00:00
Orbit: 761 x 763 km, 98.4° (Epoch: 7 June)

Date Brightness Start Highest point End Pass type
(mag) Time Alt. Az. Time Alt. Az. Time Alt. Az.
8 Jun 4.8 03:04:02 10° NE 03:07:59 23° E 03:08:00 23° E visible
8 Jun 4.0 04:42:27 10° NNW 04:46:50 30° WNW 04:48:08 27° W visible
9 Jun 2.8 04:04:08 10° N 04:09:12 77° WNW 04:09:52 65° SW visible
10 Jun 3.8 03:26:37 10° NNE 03:31:22 41° E 03:31:36 40° ESE visible
10 Jun 4.7 05:06:38 10° NNW 05:09:55 18° WNW 05:11:43 15° W visible
11 Jun 5.2 02:50:20 10° ENE 02:53:20 16° E 02:53:20 16° E visible
11 Jun 3.5 04:27:38 10° N 04:32:24 43° WNW 04:33:27 38° WSW visible
12 Jun 2.9 03:49:37 10° NNE 03:54:41 74° ESE 03:55:11 68° SSE visible
13 Jun 4.4 03:12:27 10° NE 03:16:47 28° E 03:16:54 28° E visible
13 Jun 4.2 04:51:28 10° NNW 04:55:30 25° WNW 04:57:01 21° W visible
14 Jun 5.6 02:37:41 10° E 02:38:38 11° E 02:38:38 11° E visible
14 Jun 3.0 04:12:55 10° N 04:17:55 62° WNW 04:18:45 53° WSW visible
15 Jun 3.5 03:35:13 10° NNE 03:40:08 51° E 03:40:28 50° ESE visible
15 Jun 4.9 05:15:58 10° NW 05:18:33 14° WNW 05:20:36 11° W visible
16 Jun 4.9 02:58:31 10° NE 03:02:11 20° E 03:02:12 20° E visible
16 Jun 3.8 04:36:33 10° N 04:41:05 34° WNW 04:42:19 30° W visible
17 Jun 2.8 03:58:20 10° NNE 04:03:25 88° WNW 04:04:02 70° SSW visible
